Regional Weather Roundup
Issued by NWS Kansas City/Pleasant Hill, MO

Home | Current Version | Previous Version | Graphics & Text | Print | Product List | Glossary Off
Versions: 1 2 3 4 5 6 7 8 9 10 11 12 13 14 15 16 17 18 19 20 21 22 23 24 25 26 27 28

000
ASUS43 KEAX 242010
RWREAX

WEATHER ROUNDUP FOR EASTERN KANSAS AND NORTHWEST MISSOURI
NATIONAL WEATHER SERVICE KANSAS CITY/PLEASANT HILL MO
300 PM CDT TUE MAY 24 2016

KSZ040-057-103>105-MOZ028-029-037-043-242100-
...KANSAS CITY METROPOLITAN AREA...

CITY           SKY/WX    TMP DP  RH WIND       PRES   REMARKS
K.C. INTL      PTSUNNY   76  63  64 SE13      29.90R
K.C. DOWNTOWN  PTSUNNY   78  64  61 SE7G21    29.87F
LEES SUMMIT    CLOUDY    75  66  73 S20G26    29.90F
OLATHE - IXD   CLOUDY    75  67  76 SE18G26   29.90F
OLATHE - OJC   CLOUDY    74  66  76 S17G25    29.90F
LAWRENCE       MOSUNNY   79  65  62 SE21      29.88F

$$

MOZ001>008-011>017-020>025-030>033-038>040-044>046-053-054-242100-
...NORTHERN AND CENTRAL MISSOURI...

CITY           SKY/WX    TMP DP  RH WIND       PRES   REMARKS
ST. JOSEPH     MOSUNNY   78  64  61 S9        29.90R
MOSBY          CLOUDY    73  64  73 SE9G17    29.90R
WARRENSBURG    CLOUDY    70  63  78 S10       29.90F
WHITEMAN AFB   PTSUNNY   69  69  99 S8        29.92F
CLINTON        CLOUDY    66  66 100 CALM      29.94F
SEDALIA        CLOUDY    69  65  86 E5        29.98F
WARSAW         NOT AVBL
CHILLICOTHE      N/A     76  64  66 SE9G25    29.93R
KIRKSVILLE     PTSUNNY   75  67  76 S10       29.96R

$$

MOZ041-047>049-056>058-063>065-088>090-097-242100-
...EASTERN AND SOUTHERN MISSOURI...

CITY           SKY/WX    TMP DP  RH WIND       PRES   REMARKS
ST. LOUIS INTL CLOUDY    82  64  54 SW14      29.98F
SPIRIT OF STL  CLOUDY    76  67  73 SW10G17   29.97F
COLUMBIA       LGT RAIN  68  65  90 S17       30.00F
JEFFERSON CITY LGT RAIN  67  64  90 SE8       30.00F
ROLLA          TSTM      65  64  97 S10       30.06R FOG
SPRINGFIELD    CLOUDY    66  61  84 E8        29.97F
BRANSON        LGT RAIN  64  63  94 MISG      30.06R FOG
JOPLIN         CLOUDY    71  67  87 SE7       29.96F
WEST PLAINS    TSTM      66  62  87 E13G20    30.08R FOG

$$

IAZ060-094-KSZ022-034>040-054-083-096-NEZ052-066-093-242100-
...KANSAS...SOUTHEAST NEBRASKA AND IOWA...

CITY           SKY/WX    TMP DP  RH WIND       PRES   REMARKS
TOPEKA         SUNNY     81  62  52 SE15      29.88R
MANHATTAN      SUNNY     82  59  45 SE13G21   29.88S
EMPORIA        SUNNY     78  65  63 SE17G24   29.89F
CHANUTE        MOSUNNY   78  68  71 E8        29.92F
WICHITA        MOSUNNY   81  71  71 SE16      29.87F
OMAHA          PTSUNNY   81  60  48 SE8       29.89R
LINCOLN        SUNNY     80  63  55 VRB7      29.89F
FALLS CITY     SUNNY     83  62  49 SW9       29.89R
LAMONI         CLOUDY    79  63  57 VRB6      29.91F
DES MOINES     PTSUNNY   81  62  52 CALM      29.91S

$$





USA.gov is the U.S. government's official web portal to all federal, state and local government web resources and services.